W9IF-4 Weather Reports


Display with metric or nautical units.
time (UTC)temp
F
wind
direction
speed
MPH
gust
MPH
rain 1hr
in
rain 24hr
in
rain mn
in
humidity
%
barometer
mb
20150524171644 66 245 6.0 0.0 0.00 0.00 0.00 1020.4
20150524171544 65 240 6.0 0.0 0.00 0.00 0.00 1020.4
20150524171444 65 235 7.0 0.0 0.00 0.00 0.00 1020.4
20150524171344 66 207 0.0 0.0 0.00 0.00 0.00 1020.4
20150524171244 65 207 3.0 0.0 0.00 0.00 0.00 1020.4
20150524171143 64 233 6.0 0.0 0.00 0.00 0.00 1020.3
20150524170944 67 252 8.0 0.0 0.00 0.00 0.00 1020.3
20150524170648 66 256 6.0 0.0 0.00 0.00 0.00 1020.4
20150524170548 66 250 8.0 0.0 0.00 0.00 0.00 1020.4
20150524170448 67 236 8.0 0.0 0.00 0.00 0.00 1020.4
20150524170348 66 238 6.0 0.0 0.00 0.00 0.00 1020.4
20150524170248 66 259 4.0 0.0 0.00 0.00 0.00 1020.4
20150524170148 66 235 7.0 0.0 0.00 0.00 0.00 1020.4
20150524170048 66 233 6.0 0.0 0.00 0.00 0.00 1020.4
20150524165948 67 224 8.0 0.0 0.00 0.00 0.00 1020.4
20150524165848 66 233 6.0 0.0 0.00 0.00 0.00 1020.4
20150524165748 65 222 4.0 0.0 0.00 0.00 0.00 1020.4
20150524165648 65 239 7.0 0.0 0.00 0.00 0.00 1020.4
20150524165548 64 246 6.0 0.0 0.00 0.00 0.00 1020.4
20150524165448 64 252 7.0 0.0 0.00 0.00 0.00 1020.4
20150524165348 64 248 6.0 0.0 0.00 0.00 0.00 1020.4
20150524165248 63 259 6.0 0.0 0.00 0.00 0.00 1020.3
20150524165148 64 267 6.0 0.0 0.00 0.00 0.00 1020.4
20150524165048 64 260 7.0 0.0 0.00 0.00 0.00 1020.3
20150524164948 64 250 6.0 0.0 0.00 0.00 0.00 1020.3
20150524164848 64 236 7.0 0.0 0.00 0.00 0.00 1020.3
20150524164648 64 248 8.0 0.0 0.00 0.00 0.00 1020.3
20150524164548 65 260 7.0 0.0 0.00 0.00 0.00 1020.3
20150524164448 64 221 7.0 0.0 0.00 0.00 0.00 1020.3
20150524164348 65 248 8.0 0.0 0.00 0.00 0.00 1020.3
20150524164248 66 240 9.0 0.0 0.00 0.00 0.00 1020.3
20150524164148 67 224 5.0 0.0 0.00 0.00 0.00 1020.3
20150524164048 66 231 0.0 0.0 0.00 0.00 0.00 1020.3
20150524163948 66 238 6.0 0.0 0.00 0.00 0.00 1020.3
20150524163849 65 225 6.0 0.0 0.00 0.00 0.00 1020.3
20150524163748 64 266 5.0 0.0 0.00 0.00 0.00 1020.3
20150524163648 65 267 3.0 0.0 0.00 0.00 0.00 1020.3
20150524163548 65 273 6.0 0.0 0.00 0.00 0.00 1020.3
20150524163448 64 228 0.0 0.0 0.00 0.00 0.00 1020.3
20150524163348 65 269 6.0 0.0 0.00 0.00 0.00 1020.3
20150524163248 65 252 7.0 0.0 0.00 0.00 0.00 1020.3
20150524163148 65 250 6.0 0.0 0.00 0.00 0.00 1020.3
20150524163048 64 263 5.0 0.0 0.00 0.00 0.00 1020.3
20150524162948 65 250 8.0 0.0 0.00 0.00 0.00 1020.3
20150524162848 65 263 7.0 0.0 0.00 0.00 0.00 1020.4
20150524162748 66 240 3.0 0.0 0.00 0.00 0.00 1020.4
20150524162648 66 246 6.0 0.0 0.00 0.00 0.00 1020.4
20150524162448 67 249 7.0 0.0 0.00 0.00 0.00 1020.4
20150524162248 66 255 8.0 0.0 0.00 0.00 0.00 1020.4
20150524162148 65 263 7.0 0.0 0.00 0.00 0.00 1020.4
20150524162048 65 249 7.0 0.0 0.00 0.00 0.00 1020.4
20150524161948 65 257 7.0 0.0 0.00 0.00 0.00 1020.4
20150524161848 65 260 6.0 0.0 0.00 0.00 0.00 1020.4
20150524161748 65 276 4.0 0.0 0.00 0.00 0.00 1020.4
20150524161648 65 269 5.0 0.0 0.00 0.00 0.00 1020.4
20150524161548 65 236 0.0 0.0 0.00 0.00 0.00 1020.4
20150524161449 65 239 4.0 0.0 0.00 0.00 0.00 1020.4
20150524161348 65 226 3.0 0.0 0.00 0.00 0.00 1020.4
20150524161248 65 278 5.0 0.0 0.00 0.00 0.00 1020.4
20150524161148 66 278 0.0 0.0 0.00 0.00 0.00 1020.4
20150524161048 65 266 5.0 0.0 0.00 0.00 0.00 1020.3
20150524160948 65 271 5.0 0.0 0.00 0.00 0.00 1020.3
20150524160849 66 246 9.0 0.0 0.00 0.00 0.00 1020.3
20150524160748 65 270 7.0 0.0 0.00 0.00 0.00 1020.3
20150524160648 65 260 6.0 0.0 0.00 0.00 0.00 1020.2
20150524160548 65 253 6.0 0.0 0.00 0.00 0.00 1020.2
20150524160448 65 249 6.0 0.0 0.00 0.00 0.00 1020.2
20150524160248 67 267 7.0 0.0 0.00 0.00 0.00 1020.2
20150524160148 67 224 8.0 0.0 0.00 0.00 0.00 1020.1
20150524160048 67 248 9.0 0.0 0.00 0.00 0.00 1020.1
20150524155948 66 242 8.0 0.0 0.00 0.00 0.00 1020.1
20150524155748 66 256 8.0 0.0 0.00 0.00 0.00 1020.1
20150524155648 66 235 8.0 0.0 0.00 0.00 0.00 1020.1
20150524155548 67 266 6.0 0.0 0.00 0.00 0.00 1020.1
20150524155448 66 277 4.0 0.0 0.00 0.00 0.00 1020.1
20150524155348 66 255 6.0 0.0 0.00 0.00 0.00 1020.2
20150524155248 67 256 6.0 0.0 0.00 0.00 0.00 1020.2
20150524155148 68 242 7.0 0.0 0.00 0.00 0.00 1020.2
20150524155048 66 232 7.0 0.0 0.00 0.00 0.00 1020.1
20150524154948 66 245 7.0 0.0 0.00 0.00 0.00 1020.2
20150524154848 67 252 7.0 0.0 0.00 0.00 0.00 1020.2
20150524154748 67 248 9.0 0.0 0.00 0.00 0.00 1020.2
20150524154648 68 235 6.0 0.0 0.00 0.00 0.00 1020.2
20150524154548 68 231 7.0 0.0 0.00 0.00 0.00 1020.2
20150524154448 67 236 9.0 0.0 0.00 0.00 0.00 1020.2
20150524154348 66 231 0.0 0.0 0.00 0.00 0.00 1020.2
20150524154248 66 248 7.0 0.0 0.00 0.00 0.00 1020.2
20150524154148 65 270 7.0 0.0 0.00 0.00 0.00 1020.2
20150524154048 66 255 8.0 0.0 0.00 0.00 0.00 1020.2
20150524153948 67 263 7.0 0.0 0.00 0.00 0.00 1020.2
20150524153849 67 239 10.0 0.0 0.00 0.00 0.00 1020.2
20150524153748 67 240 9.0 0.0 0.00 0.00 0.00 1020.1
20150524153648 66 236 7.0 0.0 0.00 0.00 0.00 1020.2
20150524153548 66 229 8.0 0.0 0.00 0.00 0.00 1020.2
20150524153448 66 236 7.0 0.0 0.00 0.00 0.00 1020.2
20150524153348 65 253 0.0 0.0 0.00 0.00 0.00 1020.2
20150524153248 63 240 7.0 0.0 0.00 0.00 0.00 1020.3
20150524153148 63 238 8.0 0.0 0.00 0.00 0.00 1020.3
20150524153048 62 253 6.0 0.0 0.00 0.00 0.00 1020.3
20150524152948 62 256 8.0 0.0 0.00 0.00 0.00 1020.3
20150524152848 61 203 0.0 0.0 0.00 0.00 0.00 1020.3
20150524152748 61 248 5.0 0.0 0.00 0.00 0.00 1020.3
20150524152648 61 246 7.0 0.0 0.00 0.00 0.00 1020.3
20150524152548 62 257 10.0 0.0 0.00 0.00 0.00 1020.3
20150524152448 62 256 8.0 0.0 0.00 0.00 0.00 1020.3
20150524152348 62 266 7.0 0.0 0.00 0.00 0.00 1020.2
20150524152248 62 238 8.0 0.0 0.00 0.00 0.00 1020.2
20150524152148 63 236 10.0 0.0 0.00 0.00 0.00 1020.2
20150524152048 63 226 9.0 0.0 0.00 0.00 0.00 1020.2
20150524151948 62 252 9.0 0.0 0.00 0.00 0.00 1020.1
20150524151748 62 240 8.0 0.0 0.00 0.00 0.00 1020.1
20150524151648 62 248 10.0 0.0 0.00 0.00 0.00 1020.0
20150524151548 63 253 8.0 0.0 0.00 0.00 0.00 1020.0
20150524151448 63 242 10.0 0.0 0.00 0.00 0.00 1020.0
20150524151348 63 245 6.0 0.0 0.00 0.00 0.00 1020.1
20150524151248 64 250 8.0 0.0 0.00 0.00 0.00 1020.1
20150524151148 64 233 7.0 0.0 0.00 0.00 0.00 1020.1
20150524151048 63 248 7.0 0.0 0.00 0.00 0.00 1020.2
20150524150948 62 233 7.0 0.0 0.00 0.00 0.00 1020.1
20150524150849 62 229 8.0 0.0 0.00 0.00 0.00 1020.1
20150524150748 61 246 6.0 0.0 0.00 0.00 0.00 1020.0
20150524150648 61 243 7.0 0.0 0.00 0.00 0.00 1020.1
20150524150548 61 262 7.0 0.0 0.00 0.00 0.00 1020.0
20150524150448 61 242 7.0 0.0 0.00 0.00 0.00 1020.1
20150524150248 61 246 8.0 0.0 0.00 0.00 0.00 1020.0
20150524150148 60 248 5.0 0.0 0.00 0.00 0.00 1020.1
20150524150048 60 262 8.0 0.0 0.00 0.00 0.00 1020.0
20150524145948 60 262 6.0 0.0 0.00 0.00 0.00 1020.0
20150524145848 60 250 6.0 0.0 0.00 0.00 0.00 1020.0
20150524145748 60 259 8.0 0.0 0.00 0.00 0.00 1020.0
20150524145648 60 250 6.0 0.0 0.00 0.00 0.00 1020.1
20150524145548 60 259 7.0 0.0 0.00 0.00 0.00 1020.0
20150524145448 60 263 8.0 0.0 0.00 0.00 0.00 1020.0
20150524145348 60 262 5.0 0.0 0.00 0.00 0.00 1020.0
20150524145248 60 240 6.0 0.0 0.00 0.00 0.00 1020.0
20150524145148 59 259 7.0 0.0 0.00 0.00 0.00 1020.0
20150524145048 60 250 7.0 0.0 0.00 0.00 0.00 1020.0
20150524144948 60 249 8.0 0.0 0.00 0.00 0.00 1020.0
20150524144848 60 276 8.0 0.0 0.00 0.00 0.00 1020.0
20150524144748 60 238 6.0 0.0 0.00 0.00 0.00 1020.0
20150524144648 60 238 8.0 0.0 0.00 0.00 0.00 1020.0
20150524144348 59 262 5.0 0.0 0.00 0.00 0.00 1020.1
20150524144248 59 252 8.0 0.0 0.00 0.00 0.00 1020.1
20150524144148 59 273 7.0 0.0 0.00 0.00 0.00 1020.1
20150524144048 60 260 9.0 0.0 0.00 0.00 0.00 1020.1
20150524143948 59 252 10.0 0.0 0.00 0.00 0.00 1020.0
20150524143848 59 277 10.0 0.0 0.00 0.00 0.00 1020.0
20150524143748 60 260 9.0 0.0 0.00 0.00 0.00 1020.0
20150524143648 59 260 9.0 0.0 0.00 0.00 0.00 1020.0
20150524143548 60 231 7.0 0.0 0.00 0.00 0.00 1019.9
20150524143448 60 257 9.0 0.0 0.00 0.00 0.00 1020.0
20150524143348 59 243 7.0 0.0 0.00 0.00 0.00 1020.0
20150524143248 60 263 9.0 0.0 0.00 0.00 0.00 1020.0
20150524143148 59 224 10.0 0.0 0.00 0.00 0.00 1020.0
20150524142948 59 236 0.0 0.0 0.00 0.00 0.00 1020.0
20150524142848 59 264 8.0 0.0 0.00 0.00 0.00 1020.0
20150524142748 59 235 7.0 0.0 0.00 0.00 0.00 1019.9
20150524142648 59 240 10.0 0.0 0.00 0.00 0.00 1019.9
20150524142548 59 236 8.0 0.0 0.00 0.00 0.00 1019.9
20150524142348 59 239 11.0 0.0 0.00 0.00 0.00 1020.0
20150524142248 59 255 10.0 0.0 0.00 0.00 0.00 1020.0
20150524142148 59 252 9.0 0.0 0.00 0.00 0.00 1020.0
20150524142048 59 256 10.0 0.0 0.00 0.00 0.00 1019.9
20150524141948 59 259 11.0 0.0 0.00 0.00 0.00 1019.9
20150524141749 59 253 12.0 0.0 0.00 0.00 0.00 1019.9
20150524141648 59 249 11.0 0.0 0.00 0.00 0.00 1019.9
20150524141548 59 250 10.0 0.0 0.00 0.00 0.00 1019.9
20150524141448 59 262 11.0 0.0 0.00 0.00 0.00 1019.9
20150524141348 59 248 9.0 0.0 0.00 0.00 0.00 1019.9
20150524141248 59 242 8.0 0.0 0.00 0.00 0.00 1019.9
20150524141048 60 252 10.0 0.0 0.00 0.00 0.00 1019.9
20150524140948 59 249 12.0 0.0 0.00 0.00 0.00 1019.9
20150524140848 60 238 9.0 0.0 0.00 0.00 0.00 1019.9
20150524140748 60 231 8.0 0.0 0.00 0.00 0.00 1019.9
20150524140648 60 240 8.0 0.0 0.00 0.00 0.00 1019.9
20150524140548 59 257 5.0 0.0 0.00 0.00 0.00 1019.9
20150524140448 60 246 6.0 0.0 0.00 0.00 0.00 1019.9
20150524140348 59 246 7.0 0.0 0.00 0.00 0.00 1019.8
20150524140248 60 233 8.0 0.0 0.00 0.00 0.00 1019.8
20150524140148 60 222 7.0 0.0 0.00 0.00 0.00 1019.8
20150524140048 60 231 6.0 0.0 0.00 0.00 0.00 1019.8
20150524135948 60 233 7.0 0.0 0.00 0.00 0.00 1019.8
20150524135648 60 236 7.0 0.0 0.00 0.00 0.00 1019.8
20150524135548 59 232 7.0 0.0 0.00 0.00 0.00 1019.8
20150524135448 59 242 7.0 0.0 0.00 0.00 0.00 1019.8
20150524135348 59 240 8.0 0.0 0.00 0.00 0.00 1019.8
20150524135248 59 233 8.0 0.0 0.00 0.00 0.00 1019.7
20150524135148 59 243 9.0 0.0 0.00 0.00 0.00 1019.7
20150524135048 60 242 10.0 0.0 0.00 0.00 0.00 1019.6
20150524134948 60 238 11.0 0.0 0.00 0.00 0.00 1019.5
20150524134848 60 222 9.0 0.0 0.00 0.00 0.00 1019.5
20150524134748 60 255 6.0 0.0 0.00 0.00 0.00 1019.4
20150524134648 60 229 9.0 0.0 0.00 0.00 0.00 1019.4
20150524134548 59 225 9.0 0.0 0.00 0.00 0.00 1019.4
20150524134448 59 217 7.0 0.0 0.00 0.00 0.00 1019.4
20150524134348 59 222 9.0 0.0 0.00 0.00 0.00 1019.4
20150524134248 59 239 8.0 0.0 0.00 0.00 0.00 1019.4
20150524134148 60 221 8.0 0.0 0.00 0.00 0.00 1019.4
20150524134048 60 236 10.0 0.0 0.00 0.00 0.00 1019.4
20150524133948 60 232 8.0 0.0 0.00 0.00 0.00 1019.4
20150524133848 59 201 7.0 0.0 0.00 0.00 0.00 1019.4
20150524133748 59 222 9.0 0.0 0.00 0.00 0.00 1019.4
20150524133648 59 235 8.0 0.0 0.00 0.00 0.00 1019.4
20150524133548 59 233 7.0 0.0 0.00 0.00 0.00 1019.4
20150524133448 59 238 9.0 0.0 0.00 0.00 0.00 1019.3
20150524133348 59 231 9.0 0.0 0.00 0.00 0.00 1019.3
20150524133248 59 232 10.0 0.0 0.00 0.00 0.00 1019.3
20150524133148 59 218 10.0 0.0 0.00 0.00 0.00 1019.2
20150524132948 59 229 8.0 0.0 0.00 0.00 0.00 1019.2
20150524132848 59 218 11.0 0.0 0.00 0.00 0.00 1019.2
20150524132748 59 239 9.0 0.0 0.00 0.00 0.00 1019.2
20150524132648 59 232 11.0 0.0 0.00 0.00 0.00 1019.3
20150524132548 59 239 9.0 0.0 0.00 0.00 0.00 1019.3
20150524132448 59 231 9.0 0.0 0.00 0.00 0.00 1019.3
20150524132348 59 232 9.0 0.0 0.00 0.00 0.00 1019.4
20150524132248 59 235 9.0 0.0 0.00 0.00 0.00 1019.4
20150524132148 59 238 11.0 0.0 0.00 0.00 0.00 1019.4
20150524132048 59 235 11.0 0.0 0.00 0.00 0.00 1019.4
20150524131948 59 240 11.0 0.0 0.00 0.00 0.00 1019.4
20150524131848 59 221 11.0 0.0 0.00 0.00 0.00 1019.4
20150524131750 59 235 9.0 0.0 0.00 0.00 0.00 1019.4